Tracking 28126 objects as of 1-Oct-2023
HD Live streaming from Space Station
objects crossing your sky now

ISO

Track ISO now!
ISO is classified as:


NORAD ID: 23715
Int'l Code: 1995-062A
Perigee: 639.1 km
Apogee: 69,951.5 km
Inclination: 5.9 °
Period: 1,410.7 minutes
Semi major axis: 41666 km
RCS: 3.9811 m2 (large)
Launch date: November 17, 1995
Source: European Space Agency (ESA)
Launch site: FRENCH GUIANA (FRGUI)
Your satellite tracking list
Your tracking list is empty




NASA's NSSDC Master Catalog

Two Line Element Set (TLE):
1 23715U 95062A   23272.53181973 -.00000139  00000-0  78362-2 0  9995
2 23715   5.8652  12.8719 8317554 142.1508 325.8342  1.02076460103566
Source of the keplerian elements: AFSPC